Regional Weather Roundup
Issued by NWS Wakefield, VA

Home | Current Version | Previous Version | Graphics & Text | Print | Product List | Glossary On
Versions: 1 2 3 4 5 6 7 8 9 10 11 12 13 14 15 16 17 18 19 20 21 22 23 24 25 26 27 28 29 30 31 32 33 34 35 36 37 38 39 40 41 42 43 44 45 46 47 48 49 50
000
ASUS41 KAKQ 070815
RWRAKQ

REGIONAL WEATHER ROUNDUP
NATIONAL WEATHER SERVICE WAKEFIELD VA
400 AM EDT TUE JUL 07 2015

Note: "fair" indicates few or no clouds below 12,000 feet with no
significant weather and/or obstructions to visibility. * = Denotes
station may not report precipitation (e.g., rain,snow,etc.),
thunder or fog.

VAZ042-051-052>054-056-070900-
NORTHERN VIRGINIA

CITY           SKY/WX    TMP DP  RH WIND       PRES   REMARKS
WASH NATIONAL  MOCLDY    75  72  88 S6        30.03S
DULLES         MOCLDY    72  70  94 SW3       30.03S
FORT BELVOIR   PTCLDY    72  70  94 CALM      30.03R
QUANTICO       NOT AVBL
FREDERICKSBRG* CLEAR     73  73 100 CALM      30.03S
STAFFORD*      FOG       69  68  97 CALM      30.08R VSB 1
WARRENTON      FOG       72  72 100 S3        30.03S VSB 1/2
CULPEPER*      FOG       70  70 100 CALM      30.04S VSB 1/4
MANASSAS*      CLOUDY    72  70  94 CALM        N/A
LEESBURG*      FOG       72  72 100 S3        30.03S VSB 1
WINCHESTER     CLOUDY    72  70  94 W5        30.03F
FRONT ROYAL*   CLOUDY    70  68  94 S5        30.03F
LURAY*         FAIR      70  70 100 CALM      30.05F
$$

VAZ048-049-060>072-079>083-070900-
CENTRAL AND SOUTH CENTRAL VIRGINIA

CITY           SKY/WX    TMP DP  RH WIND       PRES   REMARKS
RICHMOND       CLEAR     73  71  93 SW6       30.05S
CHESTERFIELD*  NOT AVBL
PETERSBURG*    CLEAR     72  72 100 S3        30.07S
HANOVER        PTCLDY    72  71  97 S5        30.06S FOG
TAPPAHANNOCK*  CLEAR     72  69  90 S3        30.05S
QUINTON*       NOT AVBL
CHARLOTTSVILLE PTCLDY    69  68  96 SW3       30.04F
GORDONSVILLE*  FOG       70  70 100 SW5       30.03F VSB 3/4
ORANGE*        FOG       72  70  94 CALM      30.05F VSB 1/2
LOUISA*        PTCLDY    70  66  88 CALM      30.04S
BUMPASS*       FAIR      68  68  99 CALM      30.04F
FARMVILLE*     PTCLDY    69  69 100 SW3       30.05S
CREWE*         FAIR      70  68  95 CALM      30.07R
FORT PICKETT*  FAIR      69  68  94 SW6       30.07S
CHASE CITY*    FAIR      71  71 100 CALM      30.08S
CLARKSVILLE*   PTSUNNY   68  68 100 CALM      30.07S
SOUTH HILL*    MOCLDY    71  67  88 CALM      30.14R
LAWRENCEVILLE* NOT AVBL
EMPORIA*         N/A     72  70  94 CALM      30.09R
$$

VAZ088>098-070900-
SOUTHEAST VIRGINIA

CITY           SKY/WX    TMP DP  RH WIND       PRES   REMARKS
NORFOLK        CLEAR     75  71  87 SW12      30.06S
VIRGINIA BEACH CLEAR     78  72  81 SW8       30.06S
NORFOLK NAVAL  PTCLDY    74  72  93 S7        30.08S
WEST POINT*    CLEAR     76  73  87 CALM      30.06S
SALUDA*        FAIR      74  71  89 S7        30.04S
NEWPORT NEWS   CLEAR     76  72  87 SW8       30.06S
LANGLEY AFB    CLEAR     75  72  91 S8        30.05S
FORT EUSTIS    CLEAR     76  76 100 S6        30.04S
WILLIAMSBURG*  CLEAR     79  73  83 SW5       30.06F
HR EXEC AP*    FAIR      73  70  88 S6        30.09S
FRANKLIN*      CLEAR     72  71  98 S5        30.08R
WAKEFIELD      CLEAR     74  71  91 S3        30.06F
$$

VAZ020-022-025-037-045-070900-
WEST CENTRAL AND SOUTHWEST VIRGINIA

CITY           SKY/WX    TMP DP  RH WIND       PRES   REMARKS
STAUNTON*      CLEAR     69  67  94 CALM      30.09F FOG
WAYNESBORO*    FAIR      69  65  89 SW3       30.09F
HOT SPRINGS VA MOCLDY    63  63 100 W13       30.18F FOG
LYNCHBURG      CLEAR     65  65 100 S3        30.09F
DANVILLE       CLEAR     68  65  90 CALM      30.09S
SOUTH BOSTON*  FAIR      67  66  95 MISG      30.08S
MARTINSVILLE   CLEAR     64  64 100 CALM      30.12F FOG
ROANOKE        CLEAR     69  65  86 W3        30.12S
BLACKSBURG     FOG       63  63 100 CALM      30.18S VSB<1/4
DUBLIN*        CLEAR     64  64 100 CALM      30.17S FOG
MARION*          N/A     61  60  96 W6        30.21S FOG
HILLSVILLE*    CLEAR     61  60  97 S6        30.17F FOG
RICHLANDS*     FAIR      65  64  94 CALM      30.17F
WISE*          CLEAR     66  66 100 S3        30.19S FOG
ABINGDON*      CLOUDY    64  64 100 CALM      30.16F FOG
$$

MDZ021>025-VAZ099-100-070900-
SOUTHERN MARYLAND AND THE DELMARVA PENINSULA

CITY           SKY/WX    TMP DP  RH WIND       PRES   REMARKS
PATUXENT RIVER CLEAR     75  71  87 SW10      30.02F
BAY BRIDGE APT   N/A     77  73  88 SW7       30.02S
LEONARDTOWN    CLEAR     73  70  88 S3        30.04F
DOVER          PTCLDY    73  73 100 S6        30.01F
GEORGETOWN     CLOUDY    76  74  93 S6        30.04F
EASTON         CLEAR     74  74 100 CALM      30.05F
CAMBRIDGE      CLEAR     73  72  94 CALM      30.02S
SALISBURY      PTCLDY    74  74 100 S3        30.04S
OCEAN CITY     CLOUDY    77  74  90 S6        30.04F
WALLOPS ISLAND PTCLDY    76  76 100 S7        30.05S
ACCOMACK*      CLEAR     73  72  94 S6        30.05S
$$

NCZ012>017-030>032-070900-
NORTH CENTRAL AND EASTERN NORTH CAROLINA

CITY           SKY/WX    TMP DP  RH WIND       PRES   REMARKS
ROANOKE RAPIDS FAIR      72  70  94 S6        30.08R
RALEIGH        PTCLDY    72  67  84 SE3       30.09S
ELIZABETH CITY CLEAR     75  73  93 SW8       30.09S
AHOSKIE*       CLEAR     72  69  92 S3        30.09R
EDENTON*       PTCLDY    75  72  89 SW7       30.09S
CURRITUCK*     CLEAR     76  73  88 SW3       30.09S
KILL DEVIL HLS CLEAR     77  73  87 SW7       30.09S
MANTEO         CLEAR     76  74  91 SW7       30.10S
CAPE HATTERAS  PTCLDY    77  75  93 SW7       30.11S
TARBORO*         N/A     73  70  89 S3        30.10R
GOLDSBORO      CLEAR     73  71  95 CALM      30.08S
WASHINGTON     PTCLDY    74  72  93 S6        30.11S
GREENVILLE     CLEAR     73  72  94 S6        30.11S
NEW BERN       PTCLDY    76  73  91 S5        30.12R
WILMINGTON     CLEAR     75  72  90 S3        30.11R
$$

VAZ048-070900-
ELSEWHERE

CITY           SKY/WX    TMP DP  RH WIND       PRES   REMARKS
HARRISBURG PA  CLOUDY    73  70  90 VRB3      30.01S
BALTIMORE      PTCLDY    71  70  96 W5        30.02S
ANNAPOLIS      CLEAR     74  71  91 VRB3      30.01S
ANDREWS AFB    CLEAR     71  71 100 S3        30.02F
PHILADELPHIA   CLOUDY    77  72  84 S7        30.02F
HENDERSON NC   CLEAR     69  64  84 SW3       30.08F
GREENSBORO     PTCLDY    70  67  90 CALM      30.09F
ROCKY MOUNT    CLEAR     71  69  93 S3        30.09S
$$

VAZ100-070900-
MARINE

STATION/POSITION TIME  TEMP    WIND        PRES    WAVE   SWELL
                       AIR SEA DIR/SP/G            HT/PER HT/PER
                 (UTC) (F)     (DEG/KT/KT) (MB)    (FT/S) (FT/S)
BRANDYWINE LGT   0700   75 73  220/  9/  9 1017.6R
CAPE MAY NJ      0700   75 79  180/  7/ 10 1017.2R
LEWES DE         0700   77 74  210/  6/  8 1017.1S
15NM E FENWICK I 0750   76 75              1017.1S   3/ 5
OCEAN-CITY-INLET 0700   75 74  210/  9/  9 1017.3F
WACHAPREAGUE VA  0700   78 81  240/  5/  7 1017.8S
GOOSES REEF MD   0800   78 79  220/ 12/ 14 1017.4F
COVE POINT MD    0700   75     230/ 12/ 14 1017.5F
SOLOMONS ISLAND  0700      81                N/A
BISHOPS HEAD MD  0700   79     210/ 12/ 14 1016.8F
PINEY POINT MD   0700          220/ 13/ 14   N/A
CAMBRIDGE MD     0700   74 80   CALM  /  2 1016.7F
LEWISETTA VA     0700   76 82  210/ 10/ 12 1016.8F
RAPPAHANNOCK LGT 0700          190/ 14/ 15 1018.0S
STINGRAY PT      0800   79 81  210/ 12/ 14 1017.2F   1/ 2
YORK RVR RNG VA  0700   78     210/ 13/ 15 1017.2R
YORKTOWN VA      0700   76 80  200/  9/ 12 1017.3S
JAMESTOWN VA     0800   75 83  210/  8/ 10   N/A
DOMINION TERM VA 0700   77     200/ 12/ 14 1017.8R
KIPTOPEKE VA     0700      83  190/ 10/ 11   N/A
CHES BAY BRIDGE  0700   77 74  190/ 12/ 13 1017.5F
CAPE HENRY VA    0700   76     200/  9/ 12   N/A
CHESAPEAKE LGHT  0700   78     200/ 13/ 14 1018.6F
WILLOUBY STN VA  0700   77     210/ 11/ 13 1018.8R
CAPE HENRY BUOY  0728      78                N/A     3/13   2/13
1ST LANDING BUOY 0800      76              1017.6S   1/ 4
CAPE CHARLES BUO 0726      78                N/A     2/ 5   2/13
OFFSHORE WE BUOY 0711      78                N/A     3/ 5   2/13
64NM E OF VA BCH 0750   78 77  210/ 10/ 12 1018.6S   3/ 8   3/ 8
DUCK PIER NC     0700   79 71  220/ 14/ 17   N/A
44100 DUCK FRF   0724      78                N/A     2/13   2/13
44056 DUCK FRF   0711      75                N/A     2/13   2/13
OREGON INLET NC  0700   80 82  210/ 12/ 14 1019.0S
HATTERAS NC      0700   79 81  200/  5/  8 1019.0S
DIAMOND SHLS NC  0750   80 82  210/ 14/ 16 1019.2F   3/ 9   2/ 9
CAPE LOOKOUT NC  0800   79     220/  7/ 10 1019.3R
$$


USA.gov is the U.S. government's official web portal to all federal, state and local government web resources and services.